| time (UTC) | temp F | wind direction | speed MPH | gust MPH | rain 1hr in | rain 24hr in | rain mn in | humidity % | barometer mb |
| 20260510124004 | 62 | 8 | 0.0 | 2.0 | 0.00 | 0.00 | 0.00 | 90 | 1004.7 |
| 20260510123004 | 60 | 182 | 0.0 | 1.0 | 0.00 | 0.00 | 0.00 | 95 | 1004.4 |
| 20260510122004 | 59 | 342 | 0.0 | 1.0 | 0.00 | 0.00 | 0.00 | 96 | 1004.4 |
| 20260510121004 | 58 | 340 | 0.0 | 2.0 | 0.00 | 0.00 | 0.00 | 96 | 1004.4 |
| 20260510120004 | 58 | 330 | 0.0 | 0.0 | 0.00 | 0.00 | 0.00 | 96 | 1004.1 |
| 20260510115004 | 57 | 347 | 0.0 | 0.0 | 0.00 | 0.00 | 0.00 | 96 | 1004.1 |
| 20260510114004 | 57 | 284 | 0.0 | 0.0 | 0.00 | 0.00 | 0.00 | 96 | 1004.1 |
| 20260510113004 | 55 | 13 | 0.0 | 0.0 | 0.00 | 0.00 | 0.00 | 96 | 1003.7 |
| 20260510112004 | 53 | 6 | 0.0 | 0.0 | 0.00 | 0.00 | 0.00 | 96 | 1003.4 |
| 20260510110005 | 52 | 348 | 0.0 | 0.0 | 0.00 | 0.00 | 0.00 | 96 | 1003.0 |
| 20260510105004 | 53 | 23 | 0.0 | 0.0 | 0.00 | 0.00 | 0.00 | 96 | 1002.7 |
| 20260510104005 | 53 | 6 | 0.0 | 0.0 | 0.00 | 0.00 | 0.00 | 96 | 1002.7 |
| 20260510103004 | 53 | 4 | 0.0 | 0.0 | 0.00 | 0.00 | 0.00 | 96 | 1002.7 |
| 20260510102004 | 53 | 12 | 0.0 | 0.0 | 0.00 | 0.00 | 0.00 | 96 | 1002.4 |
| 20260510101004 | 54 | 11 | 0.0 | 0.0 | 0.00 | 0.00 | 0.00 | 96 | 1002.4 |
| 20260510095003 | 54 | 39 | 0.0 | 0.0 | 0.00 | 0.00 | 0.00 | 96 | 1002.4 |
| 20260510094004 | 55 | 39 | 0.0 | 0.0 | 0.00 | 0.00 | 0.00 | 95 | 1002.4 |
| 20260510093004 | 55 | 18 | 0.0 | 0.0 | 0.00 | 0.00 | 0.00 | 95 | 1002.0 |
| 20260510092004 | 55 | 21 | 0.0 | 0.0 | 0.00 | 0.00 | 0.00 | 95 | 1002.0 |
| 20260510091004 | 55 | 10 | 0.0 | 0.0 | 0.00 | 0.00 | 0.00 | 95 | 1002.0 |
| 20260510090004 | 56 | 323 | 0.0 | 0.0 | 0.00 | 0.00 | 0.00 | 95 | 1001.7 |
| 20260510085004 | 56 | 42 | 0.0 | 0.0 | 0.00 | 0.00 | 0.00 | 95 | 1001.7 |
| 20260510083004 | 56 | 8 | 0.0 | 1.0 | 0.00 | 0.00 | 0.00 | 95 | 1001.4 |
| 20260510082004 | 57 | 328 | 0.0 | 0.0 | 0.00 | 0.00 | 0.00 | 95 | 1001.4 |
| 20260510081004 | 57 | 53 | 0.0 | 0.0 | 0.00 | 0.00 | 0.00 | 95 | 1001.4 |
| 20260510075004 | 57 | 262 | 0.0 | 2.0 | 0.00 | 0.00 | 0.00 | 95 | 1001.0 |
| 20260510073004 | 57 | 290 | 1.0 | 2.0 | 0.00 | 0.00 | 0.00 | 95 | 1000.9 |
| 20260510071004 | 57 | 174 | 0.0 | 0.0 | 0.00 | 0.00 | 0.00 | 95 | 1000.7 |
| 20260510070004 | 57 | 354 | 0.0 | 0.0 | 0.00 | 0.00 | 0.00 | 95 | 1000.7 |
| 20260510064004 | 58 | 18 | 0.0 | 0.0 | 0.00 | 0.00 | 0.00 | 94 | 1000.7 |
| 20260510063004 | 58 | 52 | 0.0 | 0.0 | 0.00 | 0.00 | 0.00 | 94 | 1000.7 |
| 20260510062004 | 59 | 85 | 0.0 | 0.0 | 0.00 | 0.00 | 0.00 | 94 | 1001.0 |
| 20260510061004 | 59 | 90 | 0.0 | 0.0 | 0.00 | 0.00 | 0.00 | 94 | 1001.0 |
| 20260510055004 | 59 | 61 | 0.0 | 0.0 | 0.00 | 0.00 | 0.00 | 94 | 1001.0 |
| 20260510054003 | 60 | 348 | 0.0 | 0.0 | 0.00 | 0.00 | 0.00 | 94 | 1001.4 |
| 20260510052004 | 60 | 14 | 0.0 | 0.0 | 0.00 | 0.00 | 0.00 | 92 | 1001.4 |
| 20260510051004 | 61 | 271 | 0.0 | 0.0 | 0.00 | 0.00 | 0.00 | 92 | 1001.4 |
| 20260510050004 | 61 | 352 | 0.0 | 0.0 | 0.00 | 0.00 | 0.00 | 91 | 1001.4 |
| 20260510045004 | 62 | 193 | 0.0 | 0.0 | 0.00 | 0.00 | 0.00 | 90 | 1001.4 |
| 20260510043004 | 62 | 26 | 0.0 | 0.0 | 0.00 | 0.00 | 0.00 | 89 | 1001.4 |
| 20260510042004 | 63 | 32 | 0.0 | 0.0 | 0.00 | 0.00 | 0.00 | 88 | 1001.4 |
| 20260510041004 | 63 | 66 | 0.0 | 3.0 | 0.00 | 0.00 | 0.00 | 87 | 1001.4 |
| 20260510040004 | 63 | 341 | 3.0 | 3.0 | 0.00 | 0.00 | 0.00 | 89 | 1001.4 |
| 20260510035004 | 63 | 35 | 0.0 | 2.0 | 0.00 | 0.00 | 0.00 | 88 | 1001.4 |
| 20260510034004 | 63 | 33 | 0.0 | 0.0 | 0.00 | 0.00 | 0.00 | 86 | 1001.0 |
| 20260510033004 | 64 | 6 | 0.0 | 0.0 | 0.00 | 0.00 | 0.00 | 86 | 1001.0 |
| 20260510030004 | 65 | 19 | 0.0 | 0.0 | 0.00 | 0.00 | 0.00 | 83 | 1001.0 |
| 20260510025004 | 66 | 96 | 0.0 | 0.0 | 0.00 | 0.00 | 0.00 | 82 | 1000.7 |
| 20260510024005 | 66 | 293 | 0.0 | 2.0 | 0.00 | 0.00 | 0.00 | 81 | 1001.0 |
| 20260510023004 | 67 | 300 | 0.0 | 3.0 | 0.00 | 0.00 | 0.00 | 80 | 1001.0 |
| 20260510022004 | 67 | 323 | 2.0 | 3.0 | 0.00 | 0.00 | 0.00 | 79 | 1000.7 |
| 20260510021005 | 67 | 325 | 0.0 | 1.0 | 0.00 | 0.00 | 0.00 | 78 | 1000.7 |
| 20260510020005 | 68 | 283 | 1.0 | 2.0 | 0.00 | 0.00 | 0.00 | 77 | 1000.3 |
| 20260510015003 | 68 | 325 | 2.0 | 3.0 | 0.00 | 0.00 | 0.00 | 76 | 1000.0 |
| 20260510014004 | 69 | 284 | 0.0 | 3.0 | 0.00 | 0.00 | 0.00 | 76 | 1000.0 |
| 20260510012003 | 69 | 314 | 2.0 | 3.0 | 0.00 | 0.00 | 0.00 | 75 | 999.7 |
| 20260510011004 | 69 | 313 | 0.0 | 2.0 | 0.00 | 0.00 | 0.00 | 75 | 999.3 |
| 20260510010004 | 69 | 333 | 0.0 | 1.0 | 0.00 | 0.00 | 0.00 | 74 | 999.3 |
| 20260510004004 | 69 | 227 | 0.0 | 3.0 | 0.00 | 0.00 | 0.00 | 73 | 999.0 |
| 20260510003005 | 70 | 250 | 0.0 | 2.0 | 0.00 | 0.00 | 0.00 | 72 | 999.0 |
| 20260510002004 | 70 | 331 | 0.0 | 1.0 | 0.00 | 0.00 | 0.00 | 71 | 999.0 |
| 20260510001004 | 71 | 351 | 0.0 | 1.0 | 0.00 | 0.00 | 0.00 | 69 | 999.0 |
| 20260510000004 | 72 | 293 | 0.0 | 2.0 | 0.00 | 0.00 | 0.00 | 69 | 998.6 |
| 20260509235004 | 72 | 227 | 0.0 | 2.0 | 0.00 | 0.00 | 0.00 | 68 | 998.6 |
| 20260509234004 | 72 | 347 | 0.0 | 2.0 | 0.00 | 0.00 | 0.00 | 67 | 998.6 |
| 20260509232004 | 73 | 329 | 1.0 | 3.0 | 0.00 | 0.00 | 0.00 | 67 | 998.3 |
| 20260509230004 | 74 | 327 | 2.0 | 6.0 | 0.00 | 0.00 | 0.00 | 64 | 998.3 |
| 20260509225004 | 74 | 268 | 2.0 | 7.0 | 0.00 | 0.00 | 0.00 | 64 | 998.3 |
| 20260509224004 | 75 | 16 | 3.0 | 7.0 | 0.00 | 0.00 | 0.00 | 62 | 998.3 |
| 20260509223004 | 75 | 315 | 2.0 | 8.0 | 0.00 | 0.00 | 0.00 | 61 | 998.3 |
| 20260509222005 | 77 | 262 | 2.0 | 8.0 | 0.00 | 0.00 | 0.00 | 59 | 998.3 |
| 20260509220004 | 76 | 354 | 2.0 | 7.0 | 0.00 | 0.00 | 0.00 | 58 | 998.3 |
| 20260509215005 | 76 | 277 | 3.0 | 6.0 | 0.00 | 0.00 | 0.00 | 58 | 998.3 |
| 20260509214004 | 78 | 353 | 5.0 | 12.0 | 0.00 | 0.00 | 0.00 | 55 | 998.0 |
| 20260509213005 | 78 | 312 | 2.0 | 12.0 | 0.00 | 0.00 | 0.00 | 55 | 998.0 |
| 20260509212004 | 78 | 311 | 3.0 | 8.0 | 0.00 | 0.00 | 0.00 | 55 | 998.0 |
| 20260509210004 | 78 | 272 | 3.0 | 10.0 | 0.00 | 0.00 | 0.00 | 55 | 998.0 |
| 20260509205004 | 78 | 329 | 3.0 | 12.0 | 0.00 | 0.00 | 0.00 | 56 | 998.0 |
| 20260509203004 | 77 | 82 | 3.0 | 12.0 | 0.00 | 0.00 | 0.00 | 56 | 998.3 |
| 20260509202003 | 76 | 350 | 5.0 | 12.0 | 0.00 | 0.00 | 0.00 | 57 | 998.3 |
| 20260509201004 | 75 | 287 | 2.0 | 9.0 | 0.00 | 0.00 | 0.00 | 57 | 998.3 |
| 20260509200004 | 76 | 6 | 6.0 | 9.0 | 0.00 | 0.00 | 0.00 | 57 | 998.3 |
| 20260509195004 | 76 | 320 | 5.0 | 10.0 | 0.00 | 0.00 | 0.00 | 55 | 998.3 |
| 20260509194004 | 76 | 307 | 4.0 | 14.0 | 0.00 | 0.00 | 0.00 | 55 | 998.3 |
| 20260509193003 | 76 | 325 | 9.0 | 14.0 | 0.00 | 0.00 | 0.00 | 55 | 998.3 |
| 20260509192004 | 77 | 249 | 4.0 | 12.0 | 0.00 | 0.00 | 0.00 | 56 | 998.6 |
| 20260509191004 | 77 | 338 | 5.0 | 12.0 | 0.00 | 0.00 | 0.00 | 53 | 998.6 |
| 20260509190004 | 76 | 300 | 5.0 | 12.0 | 0.00 | 0.00 | 0.00 | 57 | 998.6 |
| 20260509185003 | 74 | 283 | 4.0 | 7.0 | 0.00 | 0.00 | 0.00 | 56 | 999.0 |
| 20260509184004 | 76 | 345 | 4.0 | 10.0 | 0.00 | 0.00 | 0.00 | 54 | 999.0 |
| 20260509183004 | 76 | 337 | 5.0 | 10.0 | 0.00 | 0.00 | 0.00 | 55 | 999.3 |
| 20260509182004 | 76 | 245 | 3.0 | 10.0 | 0.00 | 0.00 | 0.00 | 55 | 999.3 |
| 20260509181005 | 76 | 2 | 7.0 | 10.0 | 0.00 | 0.00 | 0.00 | 55 | 999.7 |
| 20260509180004 | 75 | 337 | 8.0 | 10.0 | 0.00 | 0.00 | 0.00 | 56 | 999.7 |
| 20260509175004 | 76 | 254 | 3.0 | 10.0 | 0.00 | 0.00 | 0.00 | 56 | 999.7 |
| 20260509174004 | 75 | 324 | 7.0 | 12.0 | 0.00 | 0.00 | 0.00 | 57 | 999.7 |
| 20260509173004 | 73 | 26 | 12.0 | 12.0 | 0.00 | 0.00 | 0.00 | 58 | 1000.0 |
| 20260509172004 | 74 | 211 | 5.0 | 10.0 | 0.00 | 0.00 | 0.00 | 58 | 1000.0 |
| 20260509171004 | 74 | 233 | 3.0 | 10.0 | 0.00 | 0.00 | 0.00 | 57 | 1000.0 |
| 20260509170003 | 74 | 301 | 3.0 | 10.0 | 0.00 | 0.00 | 0.00 | 58 | 1000.3 |
| 20260509165003 | 73 | 335 | 7.0 | 8.0 | 0.00 | 0.00 | 0.00 | 60 | 1000.7 |
| 20260509164004 | 73 | 346 | 3.0 | 7.0 | 0.00 | 0.00 | 0.00 | 59 | 1000.7 |
| 20260509163004 | 73 | 310 | 3.0 | 12.0 | 0.00 | 0.00 | 0.00 | 60 | 1000.7 |
| 20260509162004 | 72 | 7 | 8.0 | 13.0 | 0.00 | 0.00 | 0.00 | 59 | 1000.7 |
| 20260509161005 | 72 | 359 | 10.0 | 13.0 | 0.00 | 0.00 | 0.00 | 60 | 1000.7 |
| 20260509160004 | 72 | 340 | 8.0 | 13.0 | 0.00 | 0.00 | 0.00 | 61 | 1000.7 |
| 20260509155003 | 71 | 344 | 5.0 | 12.0 | 0.00 | 0.00 | 0.00 | 61 | 1001.0 |
| 20260509154004 | 72 | 271 | 3.0 | 8.0 | 0.00 | 0.00 | 0.00 | 61 | 1001.0 |
| 20260509153004 | 71 | 314 | 2.0 | 9.0 | 0.00 | 0.00 | 0.00 | 62 | 1000.7 |
| 20260509151004 | 71 | 325 | 5.0 | 12.0 | 0.00 | 0.00 | 0.00 | 61 | 1001.0 |
| 20260509150004 | 73 | 353 | 3.0 | 8.0 | 0.00 | 0.00 | 0.00 | 62 | 1001.0 |
| 20260509145004 | 72 | 321 | 3.0 | 9.0 | 0.00 | 0.00 | 0.00 | 63 | 1001.0 |
| 20260509144003 | 70 | 20 | 7.0 | 10.0 | 0.00 | 0.00 | 0.00 | 67 | 1001.0 |
| 20260509143004 | 69 | 350 | 5.0 | 12.0 | 0.00 | 0.00 | 0.00 | 67 | 1001.4 |
| 20260509141005 | 67 | 332 | 3.0 | 12.0 | 0.00 | 0.00 | 0.00 | 69 | 1002.0 |
| 20260509132004 | 60 | 336 | 0.0 | 3.0 | 0.00 | 0.00 | 0.00 | 82 | 1002.7 |
| 20260509131004 | 59 | 323 | 3.0 | 3.0 | 0.00 | 0.00 | 0.00 | 83 | 1002.7 |
| 20260509130004 | 57 | 2 | 3.0 | 3.0 | 0.00 | 0.00 | 0.00 | 85 | 1002.7 |